Time,TemperatureF,DewpointF,PressureIn,WindDirection,WindDirectionDegrees,WindSpeedMPH,WindSpeedGustMPH,Humidity,HourlyPrecipIn,Conditions,Clouds,dailyrainin,SoftwareType,DateUTC
2013-03-07 00:00:00,36.6,28.8,29.80,ESE,117,0.0,2.0,73,0.00,,SKC,0.00,VWS V12.07,2013-03-07 07:00:00,
2013-03-07 00:30:00,35.9,29.4,29.82,ESE,117,0.0,1.0,77,0.00,,SKC,0.00,VWS V12.07,2013-03-07 07:30:00,
2013-03-07 01:01:00,34.7,29.8,29.82,NE,50,0.0,6.0,82,0.00,,SKC,0.00,VWS V12.07,2013-03-07 08:01:00,
2013-03-07 01:30:00,34.3,30.3,29.82,NE,50,0.0,0.0,85,0.00,,SKC,0.00,VWS V12.07,2013-03-07 08:30:00,
2013-03-07 02:00:00,33.7,30.2,29.83,NNW,347,0.0,1.0,87,0.00,,SKC,0.00,VWS V12.07,2013-03-07 09:00:00,
2013-03-07 03:00:00,33.2,29.8,29.81,NNW,347,0.0,0.0,87,0.00,,SKC,0.00,VWS V12.07,2013-03-07 10:00:00,
2013-03-07 03:30:00,32.9,28.9,29.81,NNW,347,0.0,0.0,85,0.00,,SKC,0.00,VWS V12.07,2013-03-07 10:30:00,
2013-03-07 04:01:00,32.5,28.2,29.81,NNW,347,0.0,0.0,84,0.00,,SKC,0.00,VWS V12.07,2013-03-07 11:01:00,
2013-03-07 04:30:00,31.8,28.4,29.84,NNW,347,0.0,0.0,87,0.00,,SKC,0.00,VWS V12.07,2013-03-07 11:30:00,
2013-03-07 05:00:00,31.5,28.4,29.84,NNW,347,0.0,0.0,88,0.00,,SKC,0.00,VWS V12.07,2013-03-07 12:00:00,
2013-03-07 05:30:00,31.5,28.6,29.84,NNW,347,0.0,0.0,89,0.00,,SKC,0.00,VWS V12.07,2013-03-07 12:30:00,
2013-03-07 06:00:00,31.6,28.7,29.84,NNW,347,0.0,0.0,89,0.00,,SKC,0.00,VWS V12.07,2013-03-07 13:00:00,
2013-03-07 06:30:00,31.2,28.1,29.87,WSW,239,0.0,0.0,88,0.00,,SKC,0.00,VWS V12.07,2013-03-07 13:30:00,
2013-03-07 07:01:00,31.0,27.9,29.88,WSW,239,0.0,0.0,88,0.00,,SKC,0.00,VWS V12.07,2013-03-07 14:01:00,
2013-03-07 07:30:00,31.5,28.4,29.88,WSW,239,0.0,0.0,88,0.00,,SKC,0.00,VWS V12.07,2013-03-07 14:30:00,
2013-03-07 08:01:00,32.1,28.7,29.87,WSW,239,0.0,0.0,87,0.00,,SKC,0.00,VWS V12.07,2013-03-07 15:01:00,
2013-03-07 08:30:00,32.5,28.5,29.87,WSW,239,0.0,0.0,85,0.00,,SKC,0.00,VWS V12.07,2013-03-07 15:30:00,
2013-03-07 09:00:00,34.6,28.5,29.85,WSW,239,0.0,0.0,78,0.00,,SKC,0.00,VWS V12.07,2013-03-07 16:00:00,
2013-03-07 09:30:00,35.6,28.8,29.85,ESE,113,0.0,1.0,76,0.00,,SKC,0.00,VWS V12.07,2013-03-07 16:30:00,
2013-03-07 10:01:00,35.9,28.1,29.86,ESE,110,0.0,1.0,73,0.00,,SKC,0.00,VWS V12.07,2013-03-07 17:01:00,
2013-03-07 10:30:00,37.5,28.6,29.90,ENE,76,0.0,4.0,70,0.00,,SKC,0.00,VWS V12.07,2013-03-07 17:30:00,
2013-03-07 11:01:00,38.5,28.9,29.89,ENE,77,0.0,4.0,68,0.00,,SKC,0.00,VWS V12.07,2013-03-07 18:01:00,
2013-03-07 11:30:00,40.5,29.3,29.89,ENE,76,0.0,1.0,64,0.00,,SKC,0.00,VWS V12.07,2013-03-07 18:30:00,
2013-03-07 12:00:00,42.5,29.6,29.86,ENE,75,0.0,2.0,60,0.00,,SKC,0.00,VWS V12.07,2013-03-07 19:00:00,
2013-03-07 12:30:00,43.6,29.4,29.87,ENE,75,0.0,0.0,57,0.00,,SKC,0.00,VWS V12.07,2013-03-07 19:30:00,
2013-03-07 13:01:00,44.9,25.4,29.84,ENE,75,0.0,1.0,46,0.00,,SKC,0.00,VWS V12.07,2013-03-07 20:01:00,
2013-03-07 13:30:00,46.1,25.4,29.81,East,80,0.0,4.0,44,0.00,,SKC,0.00,VWS V12.07,2013-03-07 20:30:00,
2013-03-07 14:01:00,45.5,28.0,29.82,East,82,0.0,4.0,50,0.00,,SKC,0.00,VWS V12.07,2013-03-07 21:01:00,
2013-03-07 14:30:00,45.5,29.8,29.81,East,85,0.0,4.0,54,0.00,,SKC,0.00,VWS V12.07,2013-03-07 21:30:00,
2013-03-07 15:01:00,45.8,27.7,29.80,ESE,115,0.0,4.0,49,0.00,,SKC,0.00,VWS V12.07,2013-03-07 22:01:00,
2013-03-07 15:30:00,46.2,28.6,29.80,ESE,102,3.0,3.0,50,0.00,,SKC,0.00,VWS V12.07,2013-03-07 22:30:00,
2013-03-07 16:01:00,46.4,26.2,29.80,East,92,0.0,3.0,45,0.00,,SKC,0.00,VWS V12.07,2013-03-07 23:01:00,
2013-03-07 16:30:00,46.0,28.9,29.80,East,92,0.0,0.0,51,0.00,,SKC,0.00,VWS V12.07,2013-03-07 23:30:00,
2013-03-07 17:00:00,42.6,30.1,29.82,ENE,74,0.0,1.0,61,0.00,,SKC,0.00,VWS V12.07,2013-03-08 00:00:00,
2013-03-07 17:30:00,41.3,28.9,29.84,ENE,74,0.0,0.0,61,0.00,,SKC,0.00,VWS V12.07,2013-03-08 00:30:00,
2013-03-07 18:00:00,40.2,29.0,29.85,ENE,74,0.0,0.0,64,0.00,,SKC,0.00,VWS V12.07,2013-03-08 01:00:00,
2013-03-07 18:30:00,39.1,29.1,29.86,ENE,74,0.0,0.0,67,0.00,,SKC,0.00,VWS V12.07,2013-03-08 01:30:00,
2013-03-07 19:30:00,37.6,28.0,29.85,ENE,74,0.0,0.0,68,0.00,,SKC,0.00,VWS V12.07,2013-03-08 02:30:00,
2013-03-07 20:00:00,37.3,27.7,29.87,ENE,74,0.0,0.0,68,0.00,,SKC,0.00,VWS V12.07,2013-03-08 03:00:00,
2013-03-07 20:30:00,37.3,27.7,29.85,ENE,74,0.0,0.0,68,0.00,,SKC,0.00,VWS V12.07,2013-03-08 03:30:00,
2013-03-07 21:00:00,35.8,27.7,29.87,ENE,74,0.0,0.0,72,0.00,,SKC,0.00,VWS V12.07,2013-03-08 04:00:00,
2013-03-07 21:30:00,35.2,28.7,29.86,ENE,74,0.0,0.0,77,0.00,,SKC,0.00,VWS V12.07,2013-03-08 04:30:00,
2013-03-07 22:00:00,34.3,28.2,29.87,ENE,74,0.0,0.0,78,0.00,,SKC,0.00,VWS V12.07,2013-03-08 05:00:00,
2013-03-07 22:30:00,34.1,28.0,29.86,ENE,74,0.0,0.0,78,0.00,,SKC,0.00,VWS V12.07,2013-03-08 05:30:00,
2013-03-07 23:00:00,34.1,27.0,29.86,ENE,74,0.0,0.0,75,0.00,,SKC,0.00,VWS V12.07,2013-03-08 06:00:00,
2013-03-07 23:30:00,33.5,26.4,29.83,ENE,74,0.0,0.0,75,0.00,,SKC,0.00,VWS V12.07,2013-03-08 06:30:00,